User: anonymous   Login
Location: Unspecified
(0.0000°N, 0.0000°E)
Time: 01:09:34
(UTC+00:00)
Language:

COSMOS 2501 (GLONASS) - Orbit

View from above orbital plane
View from above orbital plane
View from above satellite
View from above satellite

Ground track
Ground track

The orbit data is extracted from the following two-line orbital elements,

1 40315U 14075A   17294.37249220 -.00000024 +00000-0 +00000-0 0  9999
2 40315 064.3457 300.9176 0016979 212.4582 151.4481 02.13098596022502
Epoch (UTC): 21 October 2017 08:56:23
Eccentricity: 0.0016979
inclination: 64.3457°
perigee height: 19086 km
apogee height: 19173 km
right ascension of ascending node: 300.9176°
argument of perigee: 212.4582°
revolutions per day: 2.13098596
mean anomaly at epoch: 151.4481°
orbit number at epoch: 2250

The dashed part of the orbit path shows where the satellite is in the earth's shadow,  

DLR